When you browse on this site, cookies collect data to enhance your experience and personalize the content and advertising you see.
Visit our Privacy Policy to learn more. By continuing to use the site, you agree to this use of cookies and data.
  • In Hungary
  • List of Countries
  • For 7 days
  • Water Temperature
  • Weather Map
  • News
  • Weather Widgets
  • user-avatar
    Login

    Hourly Weather Blérancourt

    Today, 29 March, Sunday

    Time Temperature Precipitation Wind Pressure Humidity
    00:00 +2°C° 0 mm 6 mps 760 mmHg 77%
    01:00 +2°C° 0 mm 6 mps 760 mmHg 76%
    02:00 0°C° 0 mm 7 mps 760 mmHg 74%
    03:00 0°C° 0 mm 7 mps 760 mmHg 73%
    04:00 +1°C° 0 mm 6 mps 760 mmHg 73%
    05:00 -1°C° 0 mm 6 mps 760 mmHg 72%
    06:00 0°C° 0 mm 4 mps 761 mmHg 73%
    07:00 +1°C° 0 mm 6 mps 761 mmHg 67%
    08:00 +2°C° 0 mm 7 mps 761 mmHg 62%
    09:00 +3°C° 0 mm 9 mps 761 mmHg 56%
    10:00 +3°C° 0 mm 9 mps 761 mmHg 52%
    11:00 +5°C° 0 mm 9 mps 761 mmHg 48%
    12:00 +6°C° 0 mm 10 mps 761 mmHg 45%
    13:00 +5°C° 0 mm 10 mps 761 mmHg 45%
    14:00 +5°C° 0 mm 10 mps 761 mmHg 45%
    15:00 +5°C° 0 mm 10 mps 761 mmHg 45%
    16:00 +3°C° 0 mm 9 mps 761 mmHg 50%
    17:00 +2°C° 0 mm 9 mps 761 mmHg 56%
    18:00 +1°C° 0 mm 8 mps 762 mmHg 61%
    19:00 0°C° 0 mm 8 mps 762 mmHg 59%
    20:00 -1°C° 0 mm 8 mps 762 mmHg 57%
    21:00 -1°C° 0 mm 8 mps 763 mmHg 56%
    22:00 -2°C° 0 mm 8 mps 763 mmHg 55%
    23:00 -3°C° 0 mm 7 mps 763 mmHg 55%

    Tomorrow, 30 March, Monday

    Time Temperature Precipitation Wind Pressure Humidity
    00:00 -3°C° 0 mm 7 mps 763 mmHg 55%
    01:00 -4°C° 0 mm 7 mps 763 mmHg 55%
    02:00 -4°C° 0 mm 6 mps 763 mmHg 56%
    03:00 -5°C° 0 mm 6 mps 763 mmHg 57%
    04:00 -5°C° 0 mm 5 mps 763 mmHg 58%
    05:00 -5°C° 0 mm 5 mps 763 mmHg 59%
    06:00 -4°C° 0 mm 4 mps 763 mmHg 60%
    07:00 -2°C° 0 mm 5 mps 763 mmHg 54%
    08:00 -1°C° 0 mm 6 mps 763 mmHg 48%
    09:00 +1°C° 0 mm 6 mps 763 mmHg 41%
    10:00 +3°C° 0 mm 7 mps 762 mmHg 42%
    11:00 +4°C° 0 mm 7 mps 762 mmHg 42%
    12:00 +5°C° 0 mm 7 mps 761 mmHg 42%
    13:00 +5°C° 0 mm 7 mps 761 mmHg 46%
    14:00 +6°C° 0 mm 7 mps 760 mmHg 49%
    15:00 +6°C° 0 mm 7 mps 760 mmHg 52%
    16:00 +5°C° 0 mm 6 mps 760 mmHg 59%
    17:00 +5°C° 0 mm 5 mps 760 mmHg 65%
    18:00 +4°C° 0 mm 4 mps 759 mmHg 71%
    19:00 +3°C° 0 mm 4 mps 759 mmHg 77%
    20:00 +1°C° 0 mm 4 mps 760 mmHg 83%
    21:00 +1°C° 0 mm 3 mps 760 mmHg 88%
    22:00 0°C° 0 mm 4 mps 760 mmHg 89%
    23:00 0°C° 0 mm 4 mps 760 mmHg 89%

    Day after tomorrow, 31 March, Tuesday

    Time Temperature Precipitation Wind Pressure Humidity
    00:00 -1°C° 0 mm 4 mps 760 mmHg 90%
    01:00 -1°C° 0 mm 4 mps 760 mmHg 91%
    02:00 -1°C° 0 mm 3 mps 760 mmHg 92%
    03:00 -1°C° 0 mm 3 mps 760 mmHg 94%
    04:00 -2°C° 0 mm 4 mps 760 mmHg 92%
    05:00 -2°C° 0 mm 4 mps 760 mmHg 91%
    06:00 -2°C° 0 mm 4 mps 761 mmHg 89%
    07:00 0°C° 0 mm 5 mps 761 mmHg 80%
    08:00 +1°C° 0 mm 6 mps 761 mmHg 71%
    09:00 +3°C° 0 mm 6 mps 761 mmHg 62%
    10:00 +4°C° 0 mm 6 mps 761 mmHg 57%
    11:00 +7°C° 0 mm 6 mps 761 mmHg 52%
    12:00 +8°C° 0 mm 6 mps 761 mmHg 47%
    13:00 +8°C° 0 mm 6 mps 761 mmHg 46%
    14:00 +8°C° 0 mm 6 mps 760 mmHg 45%
    15:00 +8°C° 0 mm 6 mps 760 mmHg 44%
    16:00 +7°C° 0 mm 5 mps 760 mmHg 50%
    17:00 +6°C° 0 mm 4 mps 760 mmHg 55%
    18:00 +5°C° 0 mm 4 mps 760 mmHg 61%
    19:00 +3°C° 0 mm 4 mps 760 mmHg 62%
    20:00 +1°C° 0 mm 4 mps 760 mmHg 64%
    21:00 0°C° 0 mm 4 mps 760 mmHg 66%
    22:00 +1°C° 0 mm 3 mps 760 mmHg 67%
    23:00 0°C° 0 mm 3 mps 760 mmHg 68%

    1 April, Wednesday

    Time Temperature Precipitation Wind Pressure Humidity
    00:00 -1°C° 0 mm 2 mps 760 mmHg 69%
    01:00 -1°C° 0 mm 2 mps 759 mmHg 69%
    02:00 -1°C° 0 mm 2 mps 759 mmHg 69%
    03:00 -2°C° 0 mm 2 mps 758 mmHg 69%
    04:00 -2°C° 0 mm 2 mps 758 mmHg 69%
    05:00 -2°C° 0 mm 2 mps 758 mmHg 69%
    06:00 -2°C° 0 mm 2 mps 758 mmHg 68%
    07:00 +1°C° 0 mm 2 mps 758 mmHg 62%
    08:00 +4°C° 0 mm 2 mps 758 mmHg 56%
    09:00 +5°C° 0 mm 3 mps 757 mmHg 50%
    10:00 +7°C° 0 mm 3 mps 757 mmHg 47%
    11:00 +8°C° 0 mm 3 mps 757 mmHg 44%
    12:00 +10°C° 0 mm 2 mps 757 mmHg 41%
    13:00 +10°C° 0 mm 3 mps 756 mmHg 41%
    14:00 +10°C° 0 mm 3 mps 755 mmHg 42%
    15:00 +11°C° 0 mm 3 mps 754 mmHg 43%
    16:00 +9°C° 0 mm 3 mps 754 mmHg 51%
    17:00 +8°C° 0 mm 3 mps 754 mmHg 58%
    18:00 +5°C° 0 mm 3 mps 754 mmHg 66%
    19:00 +4°C° 0 mm 3 mps 754 mmHg 71%
    20:00 +3°C° 0 mm 3 mps 754 mmHg 76%
    21:00 +2°C° 0 mm 3 mps 754 mmHg 81%
    22:00 +2°C° 0 mm 2 mps 754 mmHg 85%
    23:00 +2°C° 0 mm 2 mps 754 mmHg 88%

    2 April, Thursday

    Time Temperature Precipitation Wind Pressure Humidity
    00:00 +1°C° 0 mm 2 mps 754 mmHg 92%
    01:00 +1°C° 0 mm 2 mps 753 mmHg 92%
    02:00 -1°C° 0 mm 2 mps 753 mmHg 92%
    03:00 -1°C° 0 mm 2 mps 752 mmHg 92%
    04:00 +1°C° 0 mm 1 mps 752 mmHg 90%
    05:00 +2°C° 0 mm 1 mps 752 mmHg 87%
    06:00 +2°C° 0 mm 1 mps 753 mmHg 85%
    07:00 +4°C° 0 mm 1 mps 752 mmHg 77%
    08:00 +4°C° 0 mm 2 mps 752 mmHg 68%
    09:00 +6°C° 0 mm 2 mps 752 mmHg 60%
    10:00 +7°C° 0 mm 2 mps 752 mmHg 58%
    11:00 +8°C° 0 mm 2 mps 752 mmHg 56%
    12:00 +9°C° 0 mm 2 mps 752 mmHg 54%
    13:00 +9°C° 0 mm 2 mps 752 mmHg 55%
    14:00 +9°C° 0 mm 2 mps 752 mmHg 56%
    15:00 +9°C° 0 mm 2 mps 751 mmHg 57%
    16:00 +8°C° 0 mm 2 mps 751 mmHg 62%
    17:00 +9°C° 0 mm 1 mps 751 mmHg 67%
    18:00 +8°C° 0 mm 1 mps 751 mmHg 72%
    19:00 +7°C° 0 mm 1 mps 751 mmHg 77%
    20:00 +6°C° 0 mm 1 mps 751 mmHg 82%
    21:00 +4°C° 0 mm 2 mps 751 mmHg 87%
    22:00 +4°C° 0 mm 2 mps 751 mmHg 89%
    23:00 +3°C° 0 mm 2 mps 751 mmHg 91%

    3 April, Friday

    Time Temperature Precipitation Wind Pressure Humidity
    00:00 +3°C° 0 mm 2 mps 751 mmHg 93%
    01:00 +3°C° 0 mm 2 mps 751 mmHg 93%
    02:00 +2°C° 0 mm 3 mps 751 mmHg 94%
    03:00 +2°C° 0 mm 3 mps 751 mmHg 94%
    04:00 +2°C° 0 mm 3 mps 751 mmHg 94%
    05:00 +2°C° 0 mm 3 mps 751 mmHg 94%
    06:00 +3°C° 0 mm 2 mps 752 mmHg 95%
    07:00 +4°C° 0 mm 3 mps 752 mmHg 87%
    08:00 +7°C° 0 mm 3 mps 752 mmHg 80%
    09:00 +9°C° 0 mm 3 mps 752 mmHg 73%
    10:00 +9°C° 0.1 mm 3 mps 752 mmHg 69%
    11:00 +10°C° 0.1 mm 3 mps 753 mmHg 65%
    12:00 +11°C° 0.1 mm 3 mps 753 mmHg 61%
    13:00 +11°C° 0 mm 4 mps 753 mmHg 61%
    14:00 +10°C° 0 mm 4 mps 753 mmHg 61%
    15:00 +10°C° 0 mm 4 mps 753 mmHg 60%
    16:00 +9°C° 0 mm 3 mps 753 mmHg 64%
    17:00 +8°C° 0 mm 2 mps 753 mmHg 67%
    18:00 +8°C° 0 mm 1 mps 753 mmHg 71%
    19:00 +6°C° 0 mm 2 mps 754 mmHg 73%
    20:00 +5°C° 0 mm 2 mps 754 mmHg 75%
    21:00 +3°C° 0 mm 2 mps 755 mmHg 78%
    22:00 +4°C° 0 mm 1 mps 755 mmHg 79%
    23:00 +3°C° 0 mm 1 mps 755 mmHg 81%
    Show more